Torna al catalogo

UME 1

ISS 1

AttivoScienzaLEO
NORAD 8709·PAYLOAD·🇯🇵 Japan

Lanciato Feb 29, 1976 da Tanegashima Space Center

Loading…

Prossimi Passaggi (prossime 24 ore)

TLE

AggiornatoSource: Space-Track

Epoca: Sep 14, 2026, 14:17 UTC

1 08709U 76019A   26257.59573295  .00000003  00000-0  61208-4 0  9998
2 08709  69.6745 309.8184 0011174 200.7554 311.8406 13.71751576529353

Traccia UME 1 in tempo reale con AllMySat

Download on the App Store